Regional Weather Roundup
Issued by NWS Cleveland, OH

Home | Current Version | Previous Version | Text Only | Print | Product List | Glossary On
Versions: 1 2 3 4 5 6 7 8 9 10 11 12 13 14 15 16 17 18 19 20 21 22 23 24 25 26 27 28 29 30 31 32 33 34 35 36 37 38 39 40 41 42 43 44 45 46 47 48 49 50
000
ASUS41 KCLE 171112
RWRCLE
OHIO REGIONAL WEATHER ROUNDUP
NATIONAL WEATHER SERVICE WILMINGTON, OH
700 AM EDT TUE OCT 17 2017

NOTE: "FAIR" INDICATES FEW OR NO CLOUDS BELOW 12,000 FEET WITH NO
SIGNIFICANT WEATHER AND/OR OBSTRUCTIONS TO VISIBILITY.

OHZ001>008-015>018-024>027-034-035-043-044-171200-
   NORTHWEST OHIO

CITY           SKY/WX    TMP DP  RH WIND       PRES   REMARKS
DEFIANCE       FAIR      40  35  83 SW6       30.29S
FINDLAY        FAIR      41  35  79 S8        30.30R
TOLEDO EXPRESS FAIR      42  40  92 SW6       30.27S
TOLEDO EXEC    FAIR      44  38  79 SW7       30.29S
LIMA           FAIR      41  37  86 S7        30.31S
$$

OHZ009>014-019>023-028>033-038-089-171200-
   NORTHEAST OHIO

CITY           SKY/WX    TMP DP  RH WIND       PRES   REMARKS
CLE-HOPKINS    FAIR      45  36  70 S7        30.32S
CLE-LAKEFRONT  FAIR      45  34  65 S12       30.29S
CUY CO. ARPT   CLEAR     48  36  61 SW12      30.30
LORAIN-ELYRIA    N/A    N/A N/A N/A MISG      30.31S
ASHTABULA      FAIR      38  34  85 S5        30.31S
AKRON-CANTON   FAIR      39  33  79 S6        30.32S
WOOSTER        FAIR      34  32  92 CALM      30.33S
MANSFIELD      FAIR      40  36  86 S8        30.32R
YOUNGSTOWN     FAIR      38  32  79 S7        30.32R
$$

OHZ042-051>053-060>062-070>072-077>081-171200-
  SOUTHWEST OHIO

CITY           SKY/WX    TMP DP  RH WIND       PRES   REMARKS
CINC-COVINGTON FAIR      40  40 100 CALM      30.35R
CINC-LUNKEN    FOG       40  40 100 NE3       30.38R VSB 1/2
HAMILTON       FAIR      35  34  96 CALM      30.37R
DAYTON         FAIR      43  39  86 SW7       30.35R
WRIGHT-PAT AFB CLEAR     38  38  99 CALM      30.35R
DAYTON GENERAL FAIR      43  38  82 CALM      30.34R
WILMINGTON     FAIR      40  38  93 CALM      30.35R
$$

OHZ036-037-039>041-045>050-054>059-063>069-073>076-082>088-171200-
  CENTRAL AND SOUTHEAST OHIO

CITY           SKY/WX    TMP DP  RH WIND       PRES   REMARKS
COLUMBUS       FAIR      41  39  93 CALM      30.35R
OSU AIRPORT    FAIR      39  39 100 CALM      30.35R
BOLTON FIELD   NOT AVBL
RICKENBACK AFB FAIR      38  38 100 CALM      30.35R
NEWARK         FAIR      35  33  92 CALM      30.35R
MARION         FAIR      38  35  89 S6        30.33R
LANCASTER      FAIR      35  34  96 CALM      30.35S
ZANESVILLE     FAIR      36  33  89 CALM      30.35R
NEW PHILLY     FOG       37  36  96 CALM      30.36R VSB 1/4
$$




USA.gov is the U.S. government's official web portal to all federal, state and local government web resources and services.